User: anonymous   Login
Location: Unspecified
(0.0000°N, 0.0000°E)
Time: 20:27:08
(UTC+00:00)
Language:

SICRAL 1B - Orbit

View from above orbital plane
View from above orbital plane
View from above satellite
View from above satellite

Ground track
Ground track

The orbit data is extracted from the following two-line orbital elements,

1 34810U 09020A   14314.05131935 0.00000000  00000-0  00000-0 0    00
2 34810   0.0868  79.3425 0004227  39.5833 320.4714  1.00270000    07
Epoch (UTC): 10 November 2014 01:13:53
Eccentricity: 0.0004227
inclination: 0.0868°
perigee height: 35769 km
apogee height: 35804 km
right ascension of ascending node: 79.3425°
argument of perigee: 39.5833°
revolutions per day: 1.00270000
mean anomaly at epoch: 320.4714°
orbit number at epoch: 0

The dashed part of the orbit path shows where the satellite is in the earth's shadow,  

DLR